DateTimeUTC,F1_A11,F1_S11,BsB_S11,BsG_S11,BsR_S11,BbsB_S11,BbsG_S11,BbsR_S11,BaB_A11,BaG_A11,BaR_A11,Tu_S11,T_S11,Uu_S11,U_S11,P_S11,T1_A11
2021-07-26T05:00:00Z,00000200,20000000,,,,,,,0000.23,0000.22,0000.10,17.9,24.9,04.5,02.9,0673.6,31.0
2021-07-26T05:01:00Z,00000200,20000000,,,,,,,0000.34,-000.12,0000.06,17.9,25.0,04.6,03.0,0673.6,31.0
2021-07-26T05:02:00Z,00000200,20000000,,,,,,,0000.09,0000.28,0000.24,17.9,25.0,04.6,03.0,0673.6,31.1
2021-07-26T05:03:00Z,00000200,60000000,,,,,,,0000.39,0000.47,0000.16,18.0,25.0,04.6,03.0,0673.6,31.0
2021-07-26T05:04:00Z,00000200,40000000,0000.43,-000.01,0000.19,0000.50,-000.05,0000.13,-000.16,0000.17,0000.44,18.3,24.9,05.2,03.4,0674.5,31.0
2021-07-26T05:05:00Z,00000200,00000000,0000.42,0000.21,0000.42,0000.35,0000.37,-000.01,0000.23,0000.20,-000.09,18.3,24.8,05.4,03.6,0674.6,31.0
2021-07-26T05:06:00Z,00000200,00000000,0000.46,0000.24,0000.12,0000.42,0000.14,0000.20,0000.42,0000.22,0000.35,18.3,24.8,05.5,03.7,0674.5,31.0
2021-07-26T05:07:00Z,00000200,00000000,0001.21,0000.45,0000.21,0000.29,0000.23,0000.25,0000.18,0000.12,0000.02,18.3,24.8,05.5,03.7,0674.5,31.0
2021-07-26T05:08:00Z,00000200,00000000,0001.07,0000.18,-000.07,-000.05,0000.26,0000.28,-000.04,0000.21,0000.02,18.2,24.7,05.5,03.7,0674.6,31.0
2021-07-26T05:09:00Z,00000200,00000000,0000.21,0000.15,0000.07,0000.60,-000.03,-000.18,0000.30,-000.02,-000.10,18.2,24.7,05.5,03.7,0674.6,31.0
2021-07-26T05:10:00Z,00000200,00000000,0000.33,0000.26,-000.12,0000.19,0000.20,0000.13,-000.31,-000.17,0000.06,18.2,24.7,05.5,03.7,0674.6,31.0
2021-07-26T05:11:00Z,00000200,00000000,0000.42,0000.20,0000.28,0000.31,0000.36,0000.18,-000.06,-000.19,-000.10,18.2,24.7,05.3,03.6,0674.6,31.0
2021-07-26T05:12:00Z,00000200,00000000,0000.20,0000.30,0000.19,0000.12,0000.10,0000.32,0000.14,0000.07,-000.04,18.2,24.7,05.3,03.5,0674.6,31.0
2021-07-26T05:13:00Z,00000200,00000000,0000.46,-000.05,-000.10,-000.05,0000.13,0000.32,-000.09,-000.10,0000.16,18.1,24.7,05.2,03.5,0674.6,31.0
2021-07-26T05:14:00Z,00000200,00000000,0000.91,0000.17,0000.19,0000.18,-000.05,0000.12,-000.03,0000.03,-000.01,18.2,24.7,05.2,03.5,0674.6,31.0
2021-07-26T05:15:00Z,00000200,00000000,0001.02,0000.66,0000.05,0000.51,0000.05,0000.29,-000.04,0000.27,0000.01,18.2,24.7,05.1,03.4,0674.6,31.0
2021-07-26T05:16:00Z,00000200,00000000,0000.74,0000.18,0000.21,0000.35,-000.09,-000.12,0000.28,-000.03,-000.20,18.3,24.7,05.0,03.4,0674.6,31.0
2021-07-26T05:17:00Z,00000200,00000000,0000.73,0000.41,0000.27,0000.69,0000.12,-000.12,-000.43,0000.05,0000.11,18.3,24.8,04.9,03.3,0674.6,31.0
2021-07-26T05:18:00Z,00000200,00000000,0000.75,0000.47,0000.47,0000.29,0000.26,0000.37,0000.29,-000.02,-000.01,18.3,24.8,04.9,03.3,0674.6,31.0
2021-07-26T05:19:00Z,00000200,00000000,0001.27,0000.57,0000.13,0000.82,0000.50,0000.12,0000.20,0000.01,0000.05,18.3,24.8,04.9,03.3,0674.6,31.0
2021-07-26T05:20:00Z,00000200,00000000,0000.81,0000.27,0000.31,0000.25,0000.48,0000.25,-000.02,0000.22,0000.21,18.3,24.7,04.9,03.3,0674.6,31.0
2021-07-26T05:21:00Z,00000200,00000000,-000.18,0000.28,0000.07,0000.32,0000.44,-000.09,0000.07,-000.16,-000.03,18.3,24.7,04.8,03.3,0674.6,31.0
2021-07-26T05:22:00Z,00000200,00000000,0000.57,0000.39,0000.24,0000.37,0000.15,0000.13,-000.13,0000.04,0000.24,18.2,24.7,04.8,03.2,0674.6,31.0
2021-07-26T05:23:00Z,00000200,00000000,0001.10,0000.38,0000.01,0000.31,0000.27,0000.12,0000.40,0000.34,-000.04,18.2,24.7,04.9,03.3,0674.6,31.0
2021-07-26T05:24:00Z,00000200,00000000,-000.29,0000.29,0000.03,0000.16,0000.01,0000.28,0000.20,0000.20,-000.13,18.2,24.6,05.0,03.4,0674.6,31.0
2021-07-26T05:25:00Z,00000200,00000000,0000.57,0000.33,0000.16,0000.22,-000.00,0000.12,-000.01,0000.03,0000.14,18.2,24.6,05.0,03.3,0674.6,31.0
2021-07-26T05:26:00Z,00000200,00000000,0000.50,0000.25,0000.07,0000.15,0000.25,-000.14,0000.50,-000.14,0000.20,18.2,24.6,04.9,03.3,0674.7,31.0
2021-07-26T05:27:00Z,00000200,00000000,-000.20,0000.92,-000.01,0000.02,0000.23,0000.31,-000.33,0000.56,0000.08,18.1,24.6,05.0,03.4,0674.7,31.0
2021-07-26T05:28:00Z,00000200,00000000,0000.23,0000.59,0000.13,-000.23,0000.28,-000.08,0000.54,-000.13,0000.22,18.1,24.6,05.0,03.4,0674.7,31.0
2021-07-26T05:29:00Z,00000200,00000000,-000.48,0000.60,0000.20,0000.01,0000.44,0000.08,0000.36,0000.01,0000.32,18.1,24.6,05.0,03.4,0674.7,31.0
2021-07-26T05:30:00Z,00000200,00000000,0000.83,0000.37,0000.29,-000.28,-000.10,0000.29,-000.13,0000.37,0000.12,18.2,24.6,05.1,03.4,0674.7,31.0
2021-07-26T05:31:00Z,00000200,00000000,0000.82,0000.48,0000.11,-000.29,-000.05,0000.21,0000.47,0000.31,0000.16,18.3,24.7,05.0,03.4,0674.7,31.0
2021-07-26T05:32:00Z,00000200,00000000,0000.78,0000.38,0000.15,0000.17,-000.22,-000.08,-000.12,0000.41,0000.19,18.4,24.7,05.1,03.4,0674.7,31.0
2021-07-26T05:33:00Z,00000200,00000000,0000.21,0000.67,0000.39,0000.47,0000.16,0000.22,0000.36,-000.14,-000.31,18.4,24.7,05.1,03.4,0674.7,31.0
2021-07-26T05:34:00Z,00000200,00000000,0000.80,0000.65,0000.22,0000.14,0000.04,0000.39,-000.05,0000.29,0000.38,18.4,24.7,05.1,03.4,0674.7,31.0
2021-07-26T05:35:00Z,00000200,00000000,0001.49,0000.40,0000.61,0000.85,0000.31,0000.25,0000.57,0000.49,0000.52,18.4,24.7,05.1,03.5,0674.7,31.0
2021-07-26T05:36:00Z,00000200,00000000,0000.59,0000.51,0000.21,0000.17,0000.19,-000.11,0000.09,0000.28,0000.06,18.3,24.7,05.1,03.5,0674.7,31.0
2021-07-26T05:37:00Z,00000200,00000000,0000.38,0000.38,-000.10,0000.20,0000.07,-000.13,0000.29,-000.02,0000.21,18.3,24.7,05.2,03.6,0674.7,31.0
2021-07-26T05:38:00Z,00000200,00000000,0000.64,0000.21,0000.18,0000.52,0000.18,0000.21,0000.04,0000.44,0000.12,18.3,24.6,05.4,03.6,0674.7,31.0
2021-07-26T05:39:00Z,00000200,00000000,0000.43,0000.50,0000.54,0000.56,0000.27,-000.07,0000.46,-000.12,0000.19,18.3,24.6,05.4,03.6,0674.7,31.0
2021-07-26T05:40:00Z,00000200,00000000,0000.35,0000.52,0000.23,0000.35,0000.28,0000.04,0000.22,-000.02,0000.09,18.2,24.6,05.5,03.7,0674.7,31.0
2021-07-26T05:41:00Z,00000200,00000000,0000.86,0000.66,0000.01,0000.38,0000.07,0000.08,0000.23,0000.42,-000.01,18.2,24.6,05.4,03.7,0674.7,31.0
2021-07-26T05:42:00Z,00000200,00000000,0000.24,0000.20,0000.36,0000.66,0000.28,0000.03,0000.32,0000.26,0000.51,18.2,24.6,05.5,03.7,0674.7,31.0
2021-07-26T05:43:00Z,00000200,00000000,0000.12,0000.59,0000.71,0000.01,0000.11,0000.19,0000.41,0000.34,0000.13,18.2,24.6,05.7,03.8,0674.7,31.0
2021-07-26T05:44:00Z,00000200,00000000,0001.08,0000.52,0000.54,0000.19,0000.23,0000.40,0000.17,0000.35,0000.45,18.2,24.6,05.7,03.8,0674.7,31.0
2021-07-26T05:45:00Z,00000200,00000000,-000.25,0000.41,-000.04,0000.01,0000.41,-000.04,0000.22,0000.35,-000.21,18.3,24.6,05.7,03.8,0674.7,31.0
2021-07-26T05:46:00Z,00000200,00000000,0001.18,0000.79,0000.42,0000.26,0000.08,0000.13,0000.07,-000.09,0000.53,18.3,24.7,05.6,03.8,0674.7,31.0
2021-07-26T05:47:00Z,00000200,00000000,0001.31,0000.42,0000.40,-000.01,0000.26,0000.22,0000.45,0000.33,-000.15,18.4,24.7,05.6,03.8,0674.8,31.0
2021-07-26T05:48:00Z,00000200,00000000,0001.50,0000.60,0000.24,-000.19,0000.20,-000.09,-000.01,0000.18,0000.23,18.4,24.7,05.6,03.8,0674.8,31.0
2021-07-26T05:49:00Z,00000200,00000000,0001.35,0000.59,0000.39,0000.32,0000.28,-000.06,0000.21,0000.33,0000.37,18.5,24.7,05.5,03.8,0674.7,31.0
2021-07-26T05:50:00Z,00000200,00000000,0000.64,0000.57,0000.18,0000.54,0000.20,0000.03,0000.46,-000.01,-000.09,18.4,24.7,05.6,03.8,0674.8,31.0
2021-07-26T05:51:00Z,00000200,00000000,0001.09,0001.03,0000.15,0000.33,0000.30,-000.20,0000.20,0000.21,0000.33,18.4,24.7,05.6,03.8,0674.8,31.0
2021-07-26T05:52:00Z,00000200,00000000,0000.56,0000.52,0000.34,0000.60,0000.32,0000.33,0000.42,0000.60,0000.50,18.4,24.7,05.8,04.0,0674.8,31.0
2021-07-26T05:53:00Z,00000200,00000000,0001.06,0000.36,0000.33,0000.58,0000.08,0000.26,0000.21,-000.11,-000.16,18.3,24.7,05.8,04.0,0674.8,31.0
2021-07-26T05:54:00Z,00000200,00000000,0000.40,0000.57,0000.57,0000.14,0000.16,0000.01,0000.05,0000.37,0000.01,18.3,24.6,05.9,04.0,0674.8,31.0
2021-07-26T05:55:00Z,00000200,00000000,0000.20,0000.68,0000.24,0000.18,0000.33,0000.05,0000.27,-000.07,0000.52,18.3,24.6,05.9,04.0,0674.7,31.0
2021-07-26T05:56:00Z,00000200,00000000,0001.23,0000.59,0000.43,0000.54,0000.35,-000.04,-000.08,0000.37,-000.04,18.3,24.6,05.9,04.0,0674.7,31.0
2021-07-26T05:57:00Z,00000200,40000000,,,,,,,-000.27,-000.39,-000.52,18.3,24.6,05.7,03.9,0674.7,31.0
2021-07-26T05:58:00Z,00000200,60000000,,,,,,,0000.38,0000.41,0000.35,18.0,24.8,05.6,03.7,0673.8,31.0
2021-07-26T05:59:00Z,00000200,20000000,,,,,,,0000.11,0000.26,0000.17,18.0,24.9,05.6,03.7,0673.8,31.0
